SCP
0 0 0 0 0 0 0 0 0 0 0 0 0 0 0 0 0 0 0 0 0 0 -0 -0 -0 0 0 -0 0 -0 0 0 0 0 0 0 0 0 0 -0 0 0 0 -0
0 0 0 0 0 0 0 0 0 0 0 0 0 0 0 0 0 0 0 0 0 0 0 0 -0 -0 0 0 0 0 0 0 0 0 0 0 0 0 0 0 0 0 0 0
0 0 0 0 0 0 0 0 0 0 0 0 0 0 0 0 0 0 0 0 0 0 0 0 0 0 0 -0 0 0 0 0 0 -0 0 0 0 0 0 0 0 0 0 0
0 0 0 0 0 0 0 0 0 0 0 0 0 0 0 0 0 0 0 0 0 0 0 0 0 0 0 0 0 0 0 0 0 0 0 0 0 0 0 0 0 0 0 0
0 0 0 0 0 0 0 0 0 0 0 0 0 0 0 0 0 0 0 0 0 0 0 0 0 0 0 0 0 0 0 0 0 0 0 0 0 0 0 0 0 0 0 0
0 0 0 0 0 0 0 0 0 0 0 0 0 0 0 0 0 0 0 0 0 0 0 0 0 0 0 0 0 0 0 0 0 0 0 0 0 0 0 0 0 0 0 0
0 0 0 0 0 0 0 0 0 0 0 0 0 0 0 0 0 0 0 0 0 0 0 0 0 0 0 0 0 0 0 0 0 0 0 0 0 0 0 0 0 0 0 0
0 0 0 0 0 0 0 0 0 0 0 0 0 0 0 0 0 0 0 0 0 0 0 0 0 0 0 0 0 0 0 0 0 0 0 0 0 0 0 0 0 0 0 0
0 0 0 0 0 0 0 0 0 0 0 0 0 0 0 0 0 0 0 0 0 0 0 0 0 0 0 0 0 0 0 0 0 0 0 0 0 0 0 0 0 0 0 0
0 0 0 0 0 0 0 0 0 0 0 0 0 0 0 0 0 0 0 0 0 0 0 0 0 0 0 0 0 0 0 0 0 0 0 0 0 0 0 0 0 0 0 0
0 0 0 0 0 0 0 0 0 0 0 0 0 0 0 0 0 0 0 0 0 0 0 0 0 0 0 0 0 0 0 0 0 0 0 0 0 0 0 0 0 0 0 0
0 0 0 0 0 0 0 0 0 0 0 0 0 0 0 0 0 0 0 0 0 0 0 0 0 0 0 0 0 0 0 0 0 0 0 0 0 0 0 0 0 0 0 0
0 0 0 0 0 0 0 0 0 0 0 0 0 0 0 0 0 0 0 0 0 0 0 0 0 0 0 0 0 0 0 0 0 0 0 0 0 0 0 0 0 0 0 0
0 0 0 0 0 0 0 0 0 0 0 0 0 0 0 0 0 0 0 0 0 0 0 0 0 0 0 0 0 0 0 0 0 0 0 0 0 0 0 0 0 0 0 0
0 0 0 0 0 0 0 0 0 0 0 0 0 0 0 0 0 0 0 0 0 0 0 0 0 0 0 0 0 0 0 0 0 0 0 0 0 0 0 0 0 0 0 0
0 0 0 0 0 0 0 0 0 0 0 0 0 0 0 0 0 0 0 0 0 0 0 0 0 0 0 0 0 0 0 0 0 0 0 0 0 0 0 0 0 0 0 0
0 0 0 0 0 0 0 0 0 0 0 0 0 0 0 0 0 0 0 0 0 0 0 0 0 0 0 0 0 0 0 0 0 0 0 0 0 0 0 0 0 0 0 0
0 0 0 0 0 0 0 0 0 0 0 0 0 0 0 0 0 0 0 0 0 0 0 0 0 0 0 0 0 0 0 0 0 0 0 0 0 0 0 0 0 0 0 0
0 0 0 0 0 0 0 0 0 0 0 0 0 0 0 0 0 0 0 0 0 0 0 0 0 0 0 0 0 0 0 0 0 0 0 0 0 0 0 0 0 0 0 0
0 0 0 0 0 0 0 0 0 0 0 0 0 0 0 0 0 0 0 0 0 0 0 0 0 0 0 0 0 0 0 0 0 0 0 0 0 0 0 0 0 0 0 0
0 0 0 0 0 0 0 0 0 0 0 0 0 0 0 0 0 0 0 0 0 0 0 0 0 0 0 0 0 0 0 0 0 0 0 0 0 0 0 0 0 0 0 0
0 0 0 0 0 0 0 0 0 0 0 0 0 0 0 0 0 0 0 0 0 0 0 0 0 0 0 0 0 0 0 0 0 0 0 0 0 0 0 0 0 0 0 0
0 0 0 0 0 0 0 0 0 0 0 0 0 0 0 0 0 0 0 0 0 0 0 0 0 0 0 0 0 0 0 0 0 0 0 0 0 0 0 0 0 0 0 0
0 0 0 0 0 0 0 0 0 0 0 0 0 0 0 0 0 0 0 0 0 0 0 0 0 0 0 0 0 0 0 0 0 0 0 0 0 0 0 0 0 0 0 0
0 0 0 0 0 0 0 0 0 0 0 0 0 0 0 0 0 0 0 0 0 0 0 0 0 0 0 -0 0 0 0 0 0 0 0 0 0 0 0 0 0 -0 0 0
0 0 0 0 0 0 0 0 0 0 0 0 0 0 0 0 0 0 0 0 0 0 0 0 0 0 0 0 0 0 0 0 0 0 0 0 0 0 0 0 0 0 0 0
0 0 0 0 0 0 0 0 0 0 0 0 0 0 0 0 0 0 0 0 0 0 0 0 0 0 0 0 0 0 0 0 0 0 0 0 -0 0 0 0 0 0 0 0
Wind_Speed_500mb
30 33 34 38 40 44 34 5 5 8 17 6 4 2 6 13 10 5 6 4 4 6 8 8 9 14 7 20 23 18 9 9 3 6 5 3 3 10 12 11 8 2 6 12
27 29 30 33 37 42 42 12 5 14 2 5 5 12 9 7 8 8 8 1 4 4 4 2 9 7 9 26 19 18 14 0 5 15 12 5 3 4 11 12 8 10 10 11
29 26 26 27 30 34 31 8 3 4 6 2 2 6 9 11 12 10 9 3 7 4 10 9 7 9 7 9 8 20 15 7 11 12 11 2 7 4 8 9 8 11 11 12
33 26 22 22 25 26 19 9 2 2 2 3 4 3 3 7 9 6 6 4 4 6 5 7 11 9 13 10 4 9 7 8 1 2 6 4 1 7 14 7 9 7 6 11
40 31 24 17 20 21 8 7 5 3 1 6 1 4 1 5 10 4 8 10 4 6 7 6 3 4 6 3 9 7 6 3 3 7 13 6 11 11 14 9 6 8 7 4
40 34 27 16 13 14 5 4 4 3 5 4 5 4 6 8 12 7 3 11 13 9 4 7 4 4 2 3 0 5 7 10 7 4 8 8 8 4 3 3 3 2 3 4
31 31 31 19 12 8 7 4 4 2 4 0 2 4 7 9 9 6 10 15 8 9 17 4 6 6 5 6 10 4 9 8 5 5 5 3 11 8 7 5 2 6 5 8
37 28 30 24 16 9 6 5 1 2 2 5 7 8 7 14 9 5 8 15 15 10 9 9 11 11 11 9 13 10 6 10 7 8 5 8 10 8 11 10 10 12 8 5
39 32 30 27 20 13 6 7 4 2 3 8 4 4 6 3 8 11 8 12 13 5 8 8 6 6 6 8 8 8 11 12 9 5 8 13 15 9 14 9 5 19 23 13
42 37 34 28 23 16 9 10 7 4 5 6 4 2 2 3 3 1 9 19 15 15 5 6 5 6 4 4 3 3 6 6 9 5 7 12 12 9 17 9 15 23 32 14
42 38 37 30 26 19 12 10 14 7 6 12 13 9 5 3 3 4 9 6 9 8 8 6 6 5 7 2 5 1 9 10 6 5 4 6 16 12 13 10 11 11 12 9
45 42 34 32 31 25 15 12 12 11 13 10 15 26 25 24 14 7 5 5 3 4 7 2 4 1 1 6 2 8 2 8 7 14 11 7 7 2 2 4 6 8 14 9
45 45 38 35 33 28 20 17 13 9 11 19 15 5 5 16 26 23 7 1 5 6 5 9 4 2 6 4 6 2 4 2 2 4 4 6 6 6 3 1 2 7 7 4
37 53 43 38 34 31 22 19 18 12 8 3 5 2 3 7 9 22 27 7 4 5 3 5 4 3 5 5 4 4 7 5 1 8 12 16 17 14 12 8 10 10 9 12
32 50 47 39 36 33 24 20 19 14 6 5 14 11 11 8 11 10 18 20 11 3 4 4 4 4 4 3 2 5 8 9 6 9 9 7 10 13 13 18 17 15 16 17
32 48 48 36 37 33 23 11 25 19 10 6 6 5 6 3 17 10 12 12 13 7 3 4 5 2 1 3 6 13 16 18 15 7 6 15 13 17 15 14 13 11 16 25
38 40 39 36 40 41 18 7 9 26 12 4 10 15 3 4 16 16 13 15 8 8 4 3 2 1 1 3 9 12 20 23 17 14 8 15 22 21 18 19 23 25 28 25
33 34 33 35 38 38 14 11 19 21 7 1 2 7 5 4 7 8 9 8 8 5 2 2 5 3 1 7 17 18 31 42 49 55 58 64 60 53 38 37 30 23 25 30
32 33 33 32 37 17 16 18 18 16 3 4 3 3 3 10 4 5 6 5 3 1 1 3 7 1 7 17 28 31 28 22 29 34 37 27 23 32 38 31 28 28 32 36
38 43 12 11 25 31 25 11 10 7 4 4 4 4 5 8 5 6 3 4 2 2 4 2 3 7 21 26 30 36 43 48 41 20 24 22 36 28 32 34 33 33 38 39
37 9 8 37 42 16 6 6 5 4 1 7 5 11 3 6 5 3 5 3 1 3 5 3 3 5 12 31 28 37 38 23 13 35 41 43 35 24 22 31 36 43 45 47
15 27 39 31 7 6 6 3 3 4 7 10 9 7 10 2 2 5 5 4 4 3 10 2 4 4 17 28 29 33 27 23 17 9 12 16 21 26 32 41 48 50 49 47
32 12 9 4 1 7 9 11 4 4 10 15 13 4 7 5 3 9 5 5 6 7 2 5 4 14 21 24 27 28 30 20 10 10 18 28 32 36 37 42 43 46 52 53
5 8 9 4 2 6 8 7 7 8 10 25 22 11 5 4 6 3 5 3 2 3 3 5 5 16 23 24 28 24 27 24 21 23 27 32 35 37 33 33 37 42 43 32
6 6 5 8 11 8 5 11 1 5 16 27 16 11 5 4 6 3 5 2 5 8 6 4 9 11 17 22 24 32 32 31 34 36 38 40 38 37 34 31 33 32 28 21
4 5 3 1 1 3 4 12 11 19 29 19 9 6 5 3 4 3 7 3 7 3 3 6 12 17 20 17 23 28 33 37 40 40 41 41 42 36 34 31 30 27 25 20
5 4 3 6 5 7 9 16 20 28 7 5 7 5 4 5 4 4 7 8 6 8 16 15 24 24 18 22 26 27 30 35 45 49 41 38 35 28 27 25 22 22 19 15
Wind_Direction_500mb
302 315 327 332 337 347 350 17 68 137 141 48 27 202 215 310 283 308 273 191 198 176 154 197 225 225 263 165 143 174 192 133 246 212 99 236 157 173 134 124 231 69 145 272
292 305 321 332 338 351 356 360 59 165 117 95 331 298 288 270 313 319 323 92 117 41 96 144 183 186 302 180 152 166 183 198 29 352 358 9 50 162 109 110 96 187 135 264
282 293 309 325 334 346 354 354 55 112 208 79 144 356 300 315 296 268 272 326 84 68 38 43 360 5 7 132 141 115 115 97 151 178 215 180 339 117 122 105 116 168 223 298
271 280 291 314 326 341 352 360 22 102 233 315 331 308 290 293 318 277 292 57 41 146 38 38 8 344 11 32 64 78 106 118 137 149 277 243 180 77 154 128 154 140 207 201
263 266 275 294 315 334 348 7 24 7 137 300 332 12 206 296 313 280 321 122 57 8 107 106 8 360 39 270 357 71 25 124 72 3 13 39 82 42 75 64 138 114 170 258
262 247 257 266 295 328 327 333 319 315 350 350 103 243 293 273 338 270 315 150 99 62 27 194 264 265 269 18 93 95 73 124 87 251 8 5 15 302 277 135 187 136 166 248
255 246 239 241 252 284 315 291 288 243 265 359 191 296 308 290 304 266 2 47 81 334 329 148 111 34 35 72 48 74 113 84 81 175 45 172 245 294 197 126 314 205 235 235
247 247 242 229 227 241 285 250 287 269 225 253 298 313 308 323 330 356 351 25 348 325 18 47 24 352 17 7 37 358 45 118 83 133 148 282 313 189 151 167 246 193 208 247
233 229 228 227 214 220 236 217 198 258 147 238 294 315 345 360 333 356 352 15 28 42 72 69 111 214 245 323 8 64 61 65 114 129 150 189 233 193 168 119 296 201 199 220
216 220 213 219 212 209 214 212 221 263 270 247 202 154 258 353 39 236 322 341 5 22 73 90 144 230 217 246 261 203 32 22 154 162 202 283 246 169 143 118 235 185 206 226
209 214 207 210 214 205 212 217 212 234 273 268 243 239 235 198 39 107 334 16 352 33 67 120 210 156 222 360 270 326 180 150 202 110 112 255 162 113 161 214 144 162 184 217
211 212 203 200 210 207 203 208 214 238 266 270 265 275 254 239 256 293 346 135 166 117 93 91 112 181 57 164 233 354 314 189 194 175 217 276 260 279 211 158 82 119 126 106
210 207 207 197 205 207 202 203 213 242 284 289 279 198 209 232 231 218 239 198 106 82 64 148 154 191 130 143 248 306 282 166 194 32 270 270 281 277 309 341 169 135 140 45
211 202 204 196 201 205 202 204 214 234 273 299 265 217 164 177 180 203 205 140 90 355 16 106 127 172 184 194 217 175 221 360 18 287 292 305 279 275 290 287 251 245 277 308
211 197 198 195 196 199 201 208 216 222 233 260 294 299 178 197 172 173 204 226 241 346 6 74 236 198 127 39 69 270 198 185 149 232 255 223 292 337 305 271 279 290 295 297
201 187 193 197 192 187 182 205 226 220 225 289 326 292 235 164 197 182 186 213 233 221 194 243 274 258 137 126 225 259 215 202 212 217 277 231 293 302 306 298 298 298 290 298
179 178 193 197 188 177 176 197 190 191 191 257 318 333 23 117 162 167 182 191 208 219 191 210 279 91 154 124 236 236 235 225 227 237 287 282 278 276 286 278 275 283 287 299
173 175 186 187 184 164 169 160 146 159 174 224 79 279 360 74 166 152 190 183 183 194 191 171 194 141 125 250 251 270 260 259 264 263 275 280 285 275 281 285 270 252 274 292
161 172 177 165 164 148 154 147 155 172 188 162 120 157 215 7 68 126 138 167 72 236 125 249 137 295 229 238 267 283 290 274 292 285 280 270 288 271 268 261 257 268 282 290
163 148 118 125 147 134 136 143 163 173 207 204 185 207 270 354 36 55 99 41 122 105 276 314 126 253 275 340 328 310 304 280 269 271 260 296 315 299 246 249 262 271 281 288
135 137 101 129 133 130 135 112 139 162 287 209 216 209 251 30 85 141 45 151 27 67 274 154 254 278 327 347 2 13 10 355 286 258 272 287 281 276 258 262 273 282 284 288
120 117 127 129 126 130 115 109 114 180 220 191 180 211 203 136 69 104 20 102 50 230 324 45 265 259 344 2 22 21 15 22 27 353 285 267 262 267 274 280 284 288 291 290
114 94 85 90 65 74 162 174 217 225 189 177 170 154 152 138 82 74 72 66 236 310 77 234 229 320 354 358 359 11 19 24 5 341 320 310 295 285 287 284 288 296 298 289
123 135 104 174 154 248 198 183 189 189 164 157 150 119 132 112 69 98 95 243 45 321 246 243 285 324 347 3 3 349 2 358 359 346 325 325 322 311 297 292 300 302 300 294
62 82 106 198 231 245 211 209 57 119 160 146 113 79 95 50 98 39 70 169 251 212 236 221 262 337 345 1 12 9 1 349 342 337 335 333 323 311 306 305 310 306 304 309
41 70 104 147 110 360 154 169 145 137 141 115 88 94 66 70 109 130 209 180 237 254 256 255 308 338 338 342 343 351 347 349 349 336 333 334 329 318 307 308 309 301 304 311
38 18 303 258 104 108 101 138 145 149 140 106 104 95 174 119 84 243 189 210 219 261 285 291 306 308 316 332 334 337 342 344 344 341 335 334 335 326 330 328 320 321 315 319
Wind_Speed_850mb
30 33 34 38 40 44 34 5 5 8 17 6 4 2 6 13 10 5 6 4 4 6 8 8 9 14 7 20 23 18 9 9 3 6 5 3 3 10 12 11 8 2 6 12
27 29 30 33 37 42 42 12 5 14 2 5 5 12 9 7 8 8 8 1 4 4 4 2 9 7 9 26 19 18 14 0 5 15 12 5 3 4 11 12 8 10 10 11
29 26 26 27 30 34 31 8 3 4 6 2 2 6 9 11 12 10 9 3 7 4 10 9 7 9 7 9 8 20 15 7 11 12 11 2 7 4 8 9 8 11 11 12
33 26 22 22 25 26 19 9 2 2 2 3 4 3 3 7 9 6 6 4 4 6 5 7 11 9 13 10 4 9 7 8 1 2 6 4 1 7 14 7 9 7 6 11
40 31 24 17 20 21 8 7 5 3 1 6 1 4 1 5 10 4 8 10 4 6 7 6 3 4 6 3 9 7 6 3 3 7 13 6 11 11 14 9 6 8 7 4
40 34 27 16 13 14 5 4 4 3 5 4 5 4 6 8 12 7 3 11 13 9 4 7 4 4 2 3 0 5 7 10 7 4 8 8 8 4 3 3 3 2 3 4
31 31 31 19 12 8 7 4 4 2 4 0 2 4 7 9 9 6 10 15 8 9 17 4 6 6 5 6 10 4 9 8 5 5 5 3 11 8 7 5 2 6 5 8
37 28 30 24 16 9 6 5 1 2 2 5 7 8 7 14 9 5 8 15 15 10 9 9 11 11 11 9 13 10 6 10 7 8 5 8 10 8 11 10 10 12 8 5
39 32 30 27 20 13 6 7 4 2 3 8 4 4 6 3 8 11 8 12 13 5 8 8 6 6 6 8 8 8 11 12 9 5 8 13 15 9 14 9 5 19 23 13
42 37 34 28 23 16 9 10 7 4 5 6 4 2 2 3 3 1 9 19 15 15 5 6 5 6 4 4 3 3 6 6 9 5 7 12 12 9 17 9 15 23 32 14
42 38 37 30 26 19 12 10 14 7 6 12 13 9 5 3 3 4 9 6 9 8 8 6 6 5 7 2 5 1 9 10 6 5 4 6 16 12 13 10 11 11 12 9
45 42 34 32 31 25 15 12 12 11 13 10 15 26 25 24 14 7 5 5 3 4 7 2 4 1 1 6 2 8 2 8 7 14 11 7 7 2 2 4 6 8 14 9
45 45 38 35 33 28 20 17 13 9 11 19 15 5 5 16 26 23 7 1 5 6 5 9 4 2 6 4 6 2 4 2 2 4 4 6 6 6 3 1 2 7 7 4
37 53 43 38 34 31 22 19 18 12 8 3 5 2 3 7 9 22 27 7 4 5 3 5 4 3 5 5 4 4 7 5 1 8 12 16 17 14 12 8 10 10 9 12
32 50 47 39 36 33 24 20 19 14 6 5 14 11 11 8 11 10 18 20 11 3 4 4 4 4 4 3 2 5 8 9 6 9 9 7 10 13 13 18 17 15 16 17
32 48 48 36 37 33 23 11 25 19 10 6 6 5 6 3 17 10 12 12 13 7 3 4 5 2 1 3 6 13 16 18 15 7 6 15 13 17 15 14 13 11 16 25
38 40 39 36 40 41 18 7 9 26 12 4 10 15 3 4 16 16 13 15 8 8 4 3 2 1 1 3 9 12 20 23 17 14 8 15 22 21 18 19 23 25 28 25
33 34 33 35 38 38 14 11 19 21 7 1 2 7 5 4 7 8 9 8 8 5 2 2 5 3 1 7 17 18 31 42 49 55 58 64 60 53 38 37 30 23 25 30
32 33 33 32 37 17 16 18 18 16 3 4 3 3 3 10 4 5 6 5 3 1 1 3 7 1 7 17 28 31 28 22 29 34 37 27 23 32 38 31 28 28 32 36
38 43 12 11 25 31 25 11 10 7 4 4 4 4 5 8 5 6 3 4 2 2 4 2 3 7 21 26 30 36 43 48 41 20 24 22 36 28 32 34 33 33 38 39
37 9 8 37 42 16 6 6 5 4 1 7 5 11 3 6 5 3 5 3 1 3 5 3 3 5 12 31 28 37 38 23 13 35 41 43 35 24 22 31 36 43 45 47
15 27 39 31 7 6 6 3 3 4 7 10 9 7 10 2 2 5 5 4 4 3 10 2 4 4 17 28 29 33 27 23 17 9 12 16 21 26 32 41 48 50 49 47
32 12 9 4 1 7 9 11 4 4 10 15 13 4 7 5 3 9 5 5 6 7 2 5 4 14 21 24 27 28 30 20 10 10 18 28 32 36 37 42 43 46 52 53
5 8 9 4 2 6 8 7 7 8 10 25 22 11 5 4 6 3 5 3 2 3 3 5 5 16 23 24 28 24 27 24 21 23 27 32 35 37 33 33 37 42 43 32
6 6 5 8 11 8 5 11 1 5 16 27 16 11 5 4 6 3 5 2 5 8 6 4 9 11 17 22 24 32 32 31 34 36 38 40 38 37 34 31 33 32 28 21
4 5 3 1 1 3 4 12 11 19 29 19 9 6 5 3 4 3 7 3 7 3 3 6 12 17 20 17 23 28 33 37 40 40 41 41 42 36 34 31 30 27 25 20
5 4 3 6 5 7 9 16 20 28 7 5 7 5 4 5 4 4 7 8 6 8 16 15 24 24 18 22 26 27 30 35 45 49 41 38 35 28 27 25 22 22 19 15
Wind_Direction_850mb
302 315 327 332 337 347 350 17 68 137 141 48 27 202 215 310 283 308 273 191 198 176 154 197 225 225 263 165 143 174 192 133 246 212 99 236 157 173 134 124 231 69 145 272
292 305 321 332 338 351 356 360 59 165 117 95 331 298 288 270 313 319 323 92 117 41 96 144 183 186 302 180 152 166 183 198 29 352 358 9 50 162 109 110 96 187 135 264
282 293 309 325 334 346 354 354 55 112 208 79 144 356 300 315 296 268 272 326 84 68 38 43 360 5 7 132 141 115 115 97 151 178 215 180 339 117 122 105 116 168 223 298
271 280 291 314 326 341 352 360 22 102 233 315 331 308 290 293 318 277 292 57 41 146 38 38 8 344 11 32 64 78 106 118 137 149 277 243 180 77 154 128 154 140 207 201
263 266 275 294 315 334 348 7 24 7 137 300 332 12 206 296 313 280 321 122 57 8 107 106 8 360 39 270 357 71 25 124 72 3 13 39 82 42 75 64 138 114 170 258
262 247 257 266 295 328 327 333 319 315 350 350 103 243 293 273 338 270 315 150 99 62 27 194 264 265 269 18 93 95 73 124 87 251 8 5 15 302 277 135 187 136 166 248
255 246 239 241 252 284 315 291 288 243 265 359 191 296 308 290 304 266 2 47 81 334 329 148 111 34 35 72 48 74 113 84 81 175 45 172 245 294 197 126 314 205 235 235
247 247 242 229 227 241 285 250 287 269 225 253 298 313 308 323 330 356 351 25 348 325 18 47 24 352 17 7 37 358 45 118 83 133 148 282 313 189 151 167 246 193 208 247
233 229 228 227 214 220 236 217 198 258 147 238 294 315 345 360 333 356 352 15 28 42 72 69 111 214 245 323 8 64 61 65 114 129 150 189 233 193 168 119 296 201 199 220
216 220 213 219 212 209 214 212 221 263 270 247 202 154 258 353 39 236 322 341 5 22 73 90 144 230 217 246 261 203 32 22 154 162 202 283 246 169 143 118 235 185 206 226
209 214 207 210 214 205 212 217 212 234 273 268 243 239 235 198 39 107 334 16 352 33 67 120 210 156 222 360 270 326 180 150 202 110 112 255 162 113 161 214 144 162 184 217
211 212 203 200 210 207 203 208 214 238 266 270 265 275 254 239 256 293 346 135 166 117 93 91 112 181 57 164 233 354 314 189 194 175 217 276 260 279 211 158 82 119 126 106
210 207 207 197 205 207 202 203 213 242 284 289 279 198 209 232 231 218 239 198 106 82 64 148 154 191 130 143 248 306 282 166 194 32 270 270 281 277 309 341 169 135 140 45
211 202 204 196 201 205 202 204 214 234 273 299 265 217 164 177 180 203 205 140 90 355 16 106 127 172 184 194 217 175 221 360 18 287 292 305 279 275 290 287 251 245 277 308
211 197 198 195 196 199 201 208 216 222 233 260 294 299 178 197 172 173 204 226 241 346 6 74 236 198 127 39 69 270 198 185 149 232 255 223 292 337 305 271 279 290 295 297
201 187 193 197 192 187 182 205 226 220 225 289 326 292 235 164 197 182 186 213 233 221 194 243 274 258 137 126 225 259 215 202 212 217 277 231 293 302 306 298 298 298 290 298
179 178 193 197 188 177 176 197 190 191 191 257 318 333 23 117 162 167 182 191 208 219 191 210 279 91 154 124 236 236 235 225 227 237 287 282 278 276 286 278 275 283 287 299
173 175 186 187 184 164 169 160 146 159 174 224 79 279 360 74 166 152 190 183 183 194 191 171 194 141 125 250 251 270 260 259 264 263 275 280 285 275 281 285 270 252 274 292
161 172 177 165 164 148 154 147 155 172 188 162 120 157 215 7 68 126 138 167 72 236 125 249 137 295 229 238 267 283 290 274 292 285 280 270 288 271 268 261 257 268 282 290
163 148 118 125 147 134 136 143 163 173 207 204 185 207 270 354 36 55 99 41 122 105 276 314 126 253 275 340 328 310 304 280 269 271 260 296 315 299 246 249 262 271 281 288
135 137 101 129 133 130 135 112 139 162 287 209 216 209 251 30 85 141 45 151 27 67 274 154 254 278 327 347 2 13 10 355 286 258 272 287 281 276 258 262 273 282 284 288
120 117 127 129 126 130 115 109 114 180 220 191 180 211 203 136 69 104 20 102 50 230 324 45 265 259 344 2 22 21 15 22 27 353 285 267 262 267 274 280 284 288 291 290
114 94 85 90 65 74 162 174 217 225 189 177 170 154 152 138 82 74 72 66 236 310 77 234 229 320 354 358 359 11 19 24 5 341 320 310 295 285 287 284 288 296 298 289
123 135 104 174 154 248 198 183 189 189 164 157 150 119 132 112 69 98 95 243 45 321 246 243 285 324 347 3 3 349 2 358 359 346 325 325 322 311 297 292 300 302 300 294
62 82 106 198 231 245 211 209 57 119 160 146 113 79 95 50 98 39 70 169 251 212 236 221 262 337 345 1 12 9 1 349 342 337 335 333 323 311 306 305 310 306 304 309
41 70 104 147 110 360 154 169 145 137 141 115 88 94 66 70 109 130 209 180 237 254 256 255 308 338 338 342 343 351 347 349 349 336 333 334 329 318 307 308 309 301 304 311
38 18 303 258 104 108 101 138 145 149 140 106 104 95 174 119 84 243 189 210 219 261 285 291 306 308 316 332 334 337 342 344 344 341 335 334 335 326 330 328 320 321 315 319